Flag for Germany Weather past 2 weeks in Marl, North Rhine-Westphalia, Germany

Now
45 °F

Passing clouds.


Feels Like: 40 °F
Forecast: 40 / 51 °F
Wind: 8 mph from West

Location: Duesseldorf

Current Time: Mar 30, 2015 at 5:21:11 AM

Latest Report: Mar 30, 2015 at 4:00 AM


Visibility: 25 mi

Pressure: 29.44 "Hg

Humidity: 82%

Dew point: 39 °F

Location of MarlLocation

Historic Weather in Marl — Graph

°F

Marl temperature yesterday

Maximum temperature yesterday: 53 °F (at 1:00 AM)
Minimum temperature yesterday: 47 °F (at 10:00 PM)
Average temperature yesterday: 51 °F

Past Weeks' High & Low Weather Summary

 TemperatureHumidityPressure
High65 °F (Mar 17, 3:00 PM)99% (Mar 20, 1:00 AM)30.39 "Hg (Mar 20, 1:00 AM)
Low31 °F (Mar 20, 3:00 AM)35% (Mar 17, 5:00 PM)29.26 "Hg (Mar 29, 8:00 PM)
Average44 °F79%30.06 "Hg
* Reported Mar 15 3:00 AM — Mar 30 4:00 AM, Marl, Weather by CustomWeather, © 2015

Note: Actual official high and low records may vary slightly from our data, if they occured in-between our weather recording intervals... More about our weather records

Advertising

Marl weather history for previous 24 hours

 ConditionsComfort  
Time TempWeatherWind HumidityBarometerVisibility
4:00 AM
Mon, Mar 30
45 °FPassing clouds.8 mph82%29.44 "Hg25 mi
3:00 AM46 °FSprinkles. Overcast.12 mph87%29.41 "Hg14 mi
2:00 AM46 °FOvercast.6 mph75%29.41 "Hg25 mi
1:00 AM46 °FOvercast.6 mph79%29.41 "Hg22 mi
12:00 AM46 °FPassing clouds.7 mph82%29.41 "Hg22 mi
10:00 PM
Sun, Mar 29
47 °FLight rain. Overcast.10 mph85%29.35 "Hg6 mi
9:00 PM47 °FThunderstorms. Passing clouds.9 mph87%29.32 "Hg22 mi
8:00 PM53 °FLight rain. Overcast.14 mph83%29.26 "Hg16 mi
7:00 PM53 °FLight rain. Low clouds.15 mph85%29.29 "Hg7 mi
6:00 PM52 °FRain. Low clouds.14 mph92%29.29 "Hg5 mi
4:00 PM52 °FLight rain. Low clouds.12 mph88%29.38 "Hg8 mi
3:00 PM51 °FLight rain. Low clouds.12 mph91%29.44 "Hg11 mi
2:00 PM50 °FRain. Low clouds.9 mph92%29.50 "Hg9 mi
1:00 PM50 °FLight rain. Overcast.8 mph89%29.57 "Hg8 mi
12:00 PM49 °FLight rain. Low clouds.9 mph93%29.60 "Hg9 mi
11:00 AM48 °FLight rain. Low clouds.9 mph94%29.64 "Hg5 mi
10:00 AM49 °FLight rain. Overcast.9 mph87%29.67 "Hg9 mi
9:00 AM49 °FLight rain. Overcast.9 mph79%29.68 "Hg16 mi
8:00 AM51 °FOvercast.10 mph71%29.69 "Hg22 mi
7:00 AM51 °FOvercast.8 mph76%29.71 "Hg25 mi
6:00 AM52 °FOvercast.8 mph76%29.72 "Hg25 mi
5:00 AM52 °FOvercast.10 mph75%29.72 "Hg25 mi
Weather by CustomWeather, © 2015

See weather overviewHow to use our weather pages